Regional Weather Roundup
Issued by NWS State College, PA

Home | Current Version | Previous Version | Graphics & Text | Print | Product List | Glossary Off
Versions: 1 2 3 4 5 6 7 8 9 10 11 12 13 14 15 16 17 18 19 20 21 22 23 24 25 26 27 28 29 30 31 32 33 34 35 36 37 38 39 40 41 42 43 44 45 46 47 48 49 50

000
ASUS41 KCTP 020603
RWRCTP

REGIONAL WEATHER ROUNDUP
NATIONAL WEATHER SERVICE STATE COLLEGE PA
200 AM EDT MON MAY 02 2016

Note: "fair" indicates few or no clouds below 12,000 feet with no
significant weather and/or obstructions to visibility.

* = STATION THAT DOES NOT REPORT PRECIPITATION /E.G. RAIN...SNOW...ETC/
    THUNDER OR FOG.

PAZ002>004-007>009-013>016-020>023-029>032-020700-
WESTERN PENNSYLVANIA

CITY           SKY/WX    TMP DP  RH WIND       PRES   REMARKS
ERIE           CLOUDY    45  44  97 NE7       29.96S FOG
MEADVILLE        N/A    N/A N/A N/A MISG      29.90F
FRANKLIN*      CLOUDY    50  46  87 NE6       29.94S
NEW CASTLE     CLOUDY    55  52  89 CALM      29.93R
BEAVER COUNTY  NOT AVBL
BUTLER*        CLOUDY    54  52  94 CALM      29.94R
PITTSBURGH INT CLOUDY    58  54  86 N6        29.89F
PITTSBURGH     MOCLDY    59  55  87 SE3       29.87F
INDIANA*       PTCLDY    55  55 100 CALM      29.92F FOG
LATROBE        MOCLDY    55  55 100 CALM      29.89F
WASHINGTON CO* CLOUDY    55  54  94 CALM      29.89F
$$

PAZ004>006-010>012-017>019-024>028-033>037-041-042-045-046-049>053-020700-
CENTRAL PENNSYLVANIA

CITY           SKY/WX    TMP DP  RH WIND       PRES   REMARKS
BRADFORD       FOG       51  50  96 SE5       29.93F VSB 1/2
DUBOIS         FOG       53  52  96 SE8       29.91F VSB 1/4
CLEARFIELD     CLOUDY    52  50  93 E6        29.94F FOG
JOHNSTOWN      CLOUDY    54  50  86 S7        29.92F FOG
ALTOONA        FOG       53  52  96 SE7       29.96F VSB 1/2
STATE COLLEGE  CLOUDY    50  49  97 CALM      29.97F FOG
WILLIAMSPORT   CLOUDY    50  47  89 E9        29.99F FOG
SELINSGROVE    CLOUDY    50  48  93 CALM      30.01F FOG
FT INDIANTOWN  CLOUDY    49  49 100 NE3       30.01F FOG
CAPITAL CITY   CLOUDY    53  50  89 E7        30.00F FOG
HARRISBURG     CLOUDY    52  50  93 E5        30.00F FOG
YORK           CLOUDY    52  51  97 E3        29.99F
$$

PAZ038>040-043-044-047-048-054-055-060>062-067>071-020700-
EASTERN PENNSYLVANIA

CITY           SKY/WX    TMP DP  RH WIND       PRES   REMARKS
SCRANTON       CLOUDY    49  45  86 CALM      30.00F
MOUNT POCONO   FOG       42  41  96 SE5       30.00F VSB 1/4
ALLENTOWN      CLOUDY    48  46  93 CALM      30.03F FOG
QUAKERTOWN*    CLOUDY    46  46 100 CALM      30.03F
READING        CLOUDY    50  47  89 S3        30.02F FOG
LANCASTER      CLOUDY    50  49  96 E6        30.01F FOG
COATESVILLE    FOG       48  48 100 CALM      30.03F VSB 1/4
POTTSTOWN      CLOUDY    47  47 100 VRB3      30.05S
BLUE BELL      CLOUDY    45  45 100 E5        30.03F
DOYLESTOWN     CLOUDY    45  45 100 CALM      30.03F FOG
WILLOW GROVE   NOT AVBL
NORTH PHILA    CLOUDY    48  46  93 NE6       30.06S
PHILADELPHIA   CLOUDY    49  46  90 E8        30.04S
$$




USA.gov is the U.S. government's official web portal to all federal, state and local government web resources and services.